Tracking 29892 objects as of 21-Nov-2024
HD Live streaming from Space Station
objects crossing your sky now

STARLINK-31011

Track STARLINK-31011 now!
10-day predictions
STARLINK-31011 is classified as:


NORAD ID: 58517
Int'l Code: 2023-191K
Perigee: 565.3 km
Apogee: 567.1 km
Inclination: 43.0 °
Period: 95.8 minutes
Semi major axis: 6937 km
RCS: Unknown
Launch date: December 7, 2023
Source: United States (US)
Launch site: AIR FORCE EASTERN TEST RANGE (AFETR)
Your satellite tracking list
Your tracking list is empty




NASA's NSSDC Master Catalog

Two Line Element Set (TLE):
1 58517U 23191K   24325.93320688  .00000791  00000-0  73636-4 0  9993
2 58517  43.0022 160.4485 0001239 260.6553  99.4149 15.02543637 54202
Source of the keplerian elements: AFSPC